P/2018 H2 ( PanSTARRS )

Japanese version
Home page
Updated on July 30, 2018

---------------------------------------------------------------------

* Profile

Discovery Date April 16, 2018
Magnitude 19.9 mag
Discoverer Pan-STARRS 1 telescope (Haleakala)

* Pictures

* Orbital Elements

Epoch 2018 Feb. 11.0 TT = JDT 2458160.5
T 2018 Jan. 23.47978 TT                                 MPCW
q   2.0271245            (2000.0)            P               Q
n   0.10659163     Peri.  120.23856     -0.98183457     +0.14728570
a   4.4054200      Node    68.45648     -0.18531100     -0.87976747
e   0.5398567      Incl.    7.38866     +0.04075188     -0.45201342
P   9.25
From 148 observations 2017 Nov. 17-2018 May 24, mean residual 0".5.

* Magnitudes Graph

        m1 = 14.5 + 5 log d + 10.0 log r

---------------------------------------------------------------------

The orbital elements are published on M.P.E.C. 2018-K95.
The magnitudes graphs are made with Comet for Windows.

---------------------------------------------------------------------

Copyright(C) Seiichi Yoshida (comet@aerith.net). All rights reserved.